Regional Weather Roundup
Issued by NWS Midland/Odessa, TX

Skip options and go directly to product.
Home | Oldest Version | Previous Version | Current Version | All | Graphics & Text | Save Text | Print | Product List | Glossary On

Skip product version selection by date and time.   
735
ASUS44 KMAF 182010
RWRMAF
MIDLAND AREA WEATHER ROUNDUP
NATIONAL WEATHER SERVICE MIDLAND TX
300 PM CDT FRI APR 18 2014

...IN SOUTHWEST TEXAS AND SOUTHEAST NEW MEXICO...

CITY           SKY/WX    TMP DP  RH WIND       PRES   REMARKS
ALPINE         MOSUNNY   74  43  32 S7        30.19F
ANDREWS        FAIR      69  49  49 SE8       30.17F
ARTESIA        CLOUDY    66  48  52 S17G28    30.13F
BIG SPRING     PTSUNNY   72  51  46 S8        30.20F
CARLSBAD       CLOUDY    68  49  50 S15G24    30.12F
DRYDEN           N/A     76  56  49 E12       30.13F
FORT STOCKTON  PTSUNNY   74  49  41 S15G24    30.13F
GUAD PASS      CLOUDY    63  46  54 E29G38    30.16F HAZE
HOBBS          SUNNY     66  48  52 SE12G21   30.16F
MARFA          MOSUNNY   73  39  29 E14G21    30.17F
MIDLAND AIRPK  MOSUNNY   72  50  44 SE9G18    30.17F
MIDLAND INTL   MOSUNNY   72  51  47 S10G21    30.16F
ODESSA         MOSUNNY   73  49  42 SE14      30.16F
PECOS          PTSUNNY   78  47  34 E13G23    30.09F
PRESIDIO       FAIR      83  46  26 E13G20    30.04F
SEMINOLE       MOSUNNY   67  49  52 S9G16     30.18F
SNYDER         SUNNY     65  49  55 CALM      30.20F
WINK           PTSUNNY   76  49  38 S13       30.11F
$$
...OTHER STATIONS IN TEXAS...

CITY           SKY/WX    TMP DP  RH WIND       PRES   REMARKS
ABILENE        PTSUNNY   71  49  45 N8        30.19F
AMARILLO       SUNNY     70  43  37 S18G26    30.14F
AUSTIN         MOSUNNY   74  57  55 E8        30.15F
BROWNSVILLE    CLOUDY    75  63  66 NE9       30.13S
CORPUS CHRISTI MOSUNNY   79  59  50 E12G22    30.13F
DALLAS FTW     MOSUNNY   75  49  39 CALM      30.17F
DEL RIO        PTSUNNY   76  54  46 S12       30.14F
EL PASO        CLOUDY    80  34  19 SE14      30.04F
HOUSTON INT    MOSUNNY   77  52  41 NE10G17   30.13F
LUBBOCK        PTSUNNY   66  48  52 S12       30.17F
SAN ANGELO     PTSUNNY   77  50  38 VRB5      30.16F
SAN ANTONIO    PTSUNNY   78  56  46 VRB5      30.15F
WACO           CLOUDY    73  53  49 VRB3      30.17F
WICHITA FALLS  NOT AVBL
$$
...OTHER LOCATIONS IN NEW MEXICO...

CITY           SKY/WX    TMP DP  RH WIND       PRES   REMARKS
ALAMAGORDO     CLOUDY    77  32  19 S22G28    30.07F
ALBUQUERQUE    PTSUNNY   70  26  19 SW3       30.09F
CANNON AFB     MOSUNNY   65  45  48 S21G29    30.16F
CLOVIS         SUNNY     66  46  48 S23G30    30.19F
HOLLOMAN AFB   CLOUDY    76  35  22 S15       30.06F
ROSWELL        PTSUNNY   67  48  50 SE20G28   30.12F
RUIDOSO        CLOUDY    64  32  29 SE21      30.20F
SANTA FE       MOSUNNY   70  22  16 W13G20    30.13F
TRUTH OR CONSE PTSUNNY   73  28  18 VRB7G18   30.08F
TUCUMCARI      SUNNY     74  42  31 SW22G31   30.07F
$$

USA.gov is the U.S. government's official web portal to all federal, state and local government web resources and services.